Home > Weather > Lafayette > Past weeks

Flag for USA Past Weather in Lafayette, Louisiana, USA — Yesterday and Last 2 Weeks

Now
77 °F

Fog.


Feels Like: 78 °F
Forecast: 74 / 89 °F
Wind: 3 mph from Northeast

Location: Lafayette Regional Airport

Current Time: Aug 26, 2016 at 5:31:59 AM

Latest Report: Aug 26, 2016 at 4:53 AM


Visibility: 5 mi

Pressure: 30.01 "Hg

Humidity: 94%

Dew Point: 75 °F

Location of LafayetteLocation

Past Weather in Lafayette — Graph

°F

Lafayette Temperature Yesterday

Maximum temperature yesterday: 91 °F (at 12:53 PM)
Minimum temperature yesterday: 75 °F (at 2:53 PM)
Average temperature yesterday: 81 °F

High & Low Weather Summary for the Past Weeks

 TemperatureHumidityPressure
High94 °F (Aug 24, 2:53 PM)100% (Aug 17, 8:00 AM)30.21 "Hg (Aug 17, 8:00 AM)
Low72 °F (Aug 13, 8:53 AM)54% (Aug 23, 2:53 PM)29.78 "Hg (Aug 12, 6:53 PM)
Average81 °F85%30.01 "Hg
* Reported Aug 11 3:53 AM — Aug 26 3:53 AM, Lafayette, Weather by CustomWeather, © 2016

Note: Actual official high and low records may vary slightly from our data, if they occured in-between our weather recording intervals... More about our weather records

Advertising

Lafayette Weather History for the Previous 24 Hours

Scroll right to see more
 ConditionsComfort  
Time TempWeatherWind HumidityBarometerVisibility
3:53 AM
Fri, Aug 26
78 °FFog.5 mph90%30.02 "Hg5 mi
2:53 AM77 °FFog.6 mph94%30.03 "Hg5 mi
1:53 AM77 °FPassing clouds.No wind94%30.03 "Hg9 mi
12:53 AM78 °FPassing clouds.5 mph93%30.06 "Hg10 mi
11:53 PM
Thu, Aug 25
78 °FPassing clouds.7 mph93%30.06 "Hg10 mi
10:53 PM79 °FPassing clouds.6 mph94%30.06 "Hg8 mi
9:53 PM79 °FClear.3 mph90%30.04 "Hg10 mi
8:53 PM79 °FClear.No wind94%30.04 "Hg10 mi
7:53 PM79 °FSunny.No wind94%30.03 "Hg10 mi
6:53 PM80 °FSunny.6 mph87%30.03 "Hg10 mi
5:53 PM80 °FSunny.No wind85%30.02 "Hg10 mi
4:53 PM79 °FSunny.No wind84%30.03 "Hg10 mi
3:53 PM78 °FLight rain. Mostly cloudy.7 mph84%30.05 "Hg10 mi
2:53 PM75 °FStrong thunderstorms. Fog.10 mph90%30.06 "Hg3 mi
1:53 PM90 °FThundershowers. Passing clouds.3 mph66%30.04 "Hg10 mi
12:53 PM91 °FSunny.3 mph64%30.05 "Hg10 mi
11:53 AM90 °FScattered clouds.6 mph68%30.09 "Hg10 mi
10:53 AM89 °FSunny.5 mph72%30.09 "Hg10 mi
9:53 AM85 °FSunny.3 mph91%30.09 "Hg10 mi
8:53 AM81 °FSunny.3 mph91%30.10 "Hg10 mi
7:53 AM79 °FPassing clouds.5 mph97%30.11 "Hg10 mi
6:53 AM78 °FClear.3 mph96%30.09 "Hg10 mi
5:53 AM79 °FClear.3 mph94%30.07 "Hg10 mi
Weather by CustomWeather, © 2016

See weather overviewHow to use our weather pages